Location: Splawn
(30.9202°N, 96.9858°W)
Time: 09:13:12
(UTC+00:00)

Altair - Visible Passes

Search period start: 17 February 2020 00:00
Search period end: 27 February 2020 00:00
Orbit: 1502 x 1682 km, 47.2° (Epoch: 16 February)

Date Brightness Start Highest point End Pass type
(mag) Time Alt. Az. Time Alt. Az. Time Alt. Az.
17 Feb 9.4 08:24:17 17° NE 08:24:17 17° NE 08:26:09 10° NE visible
17 Feb 8.3 10:22:17 36° NNW 10:22:18 36° NNW 10:31:17 10° NE visible
17 Feb 8.7 12:21:15 10° NW 12:29:49 32° N 12:38:35 10° ENE visible
18 Feb 9.7 08:00:23 12° NE 08:00:23 12° NE 08:00:56 10° NE visible
18 Feb 8.4 09:58:23 36° N 09:58:23 36° N 10:05:59 10° NE visible
18 Feb 8.7 11:56:24 11° NW 12:04:26 31° N 12:13:07 10° ENE visible
19 Feb 8.6 09:34:28 33° NNE 09:34:28 33° NNE 09:40:43 10° NE visible
19 Feb 8.7 11:32:28 16° NW 11:39:01 31° N 11:47:38 10° ENE visible
20 Feb 8.8 09:10:32 29° NNE 09:10:32 29° NNE 09:15:27 10° NE visible
20 Feb 8.7 11:08:32 20° NW 11:13:37 30° N 11:22:10 10° ENE visible
21 Feb 9.1 08:46:35 23° NNE 08:46:35 23° NNE 08:50:12 10° NE visible
21 Feb 8.7 10:44:35 24° NNW 10:48:13 30° N 10:56:42 10° ENE visible
22 Feb 9.4 08:22:38 18° NE 08:22:38 18° NE 08:24:58 10° NE visible
22 Feb 8.6 10:20:39 28° NNW 10:22:49 30° N 10:31:16 10° ENE visible
22 Feb 8.5 12:20:41 10° NW 12:30:03 45° NNE 12:39:36 10° E visible
23 Feb 9.6 07:58:42 14° NE 07:58:42 14° NE 07:59:44 10° NE visible
23 Feb 8.6 09:56:42 30° N 09:57:25 30° N 10:05:50 10° ENE visible
23 Feb 8.5 11:55:29 10° NW 12:04:43 42° NNE 12:14:09 10° E visible
24 Feb 8.7 09:32:45 30° N 09:32:45 30° N 09:40:26 10° NE visible
24 Feb 8.5 11:30:46 12° NW 11:39:23 40° NNE 11:48:42 10° E visible
25 Feb 8.9 09:08:50 28° NNE 09:08:50 28° NNE 09:15:03 10° NE visible
25 Feb 8.6 11:06:50 16° NW 11:14:02 38° NNE 11:23:13 10° E visible
26 Feb 9.1 08:44:55 24° NNE 08:44:55 24° NNE 08:49:40 10° NE visible
26 Feb 8.6 10:42:56 21° NW 10:48:41 37° NNE 10:57:44 10° E visible
